User: anonymous   Login
Location: Unspecified
(0.0000°N, 0.0000°E)
Time: 23:27:58
(UTC+00:00)
Language:

ORS 1 (USA 231) - Orbit

View from above orbital plane
View from above orbital plane
View from above satellite
View from above satellite

Ground track
Ground track

The orbit data is extracted from the following two-line orbital elements,

1 37728U 11029A   17340.18100257 0.00081000  00000-0  35069-3 0    07
2 37728  39.9739  81.9208 0002000 139.7802 220.2191 15.83840079    01
Epoch (UTC): 06 December 2017 04:20:38
Eccentricity: 0.0002000
inclination: 39.9739°
perigee height: 318 km
apogee height: 321 km
right ascension of ascending node: 81.9208°
argument of perigee: 139.7802°
revolutions per day: 15.83840079
mean anomaly at epoch: 220.2191°
orbit number at epoch: 0

The dashed part of the orbit path shows where the satellite is in the earth's shadow,  

DLR